Home   Weather   Saint-Étienne   Past weeks

Flag for France Past Weather in Saint-Étienne, Rhône-Alpes, France — Yesterday and Last 2 Weeks

Now
30 °F

Clear.


Feels Like: 30 °F
Forecast: 15 / 35 °F
Wind: 1 mph from North

Location: St-Etienne Boutheon

Current Time: Jan 21, 2017 at 6:44:17 pm

Latest Report: Jan 21, 2017 at 6:00 pm


Visibility: 4 mi

Pressure: 30.21 "Hg (28.27 "Hg at 529m altitude)

Humidity: 69%

Dew Point: 21 °F

Location of Saint-ÉtienneLocation

Past Weather in Saint-Étienne — Graph

°F

Saint-Étienne Temperature Yesterday

Maximum temperature yesterday: 34 °F (at 3:30 pm)
Minimum temperature yesterday: 10 °F (at 5:00 am)
Average temperature yesterday: 21 °F

High & Low Weather Summary for the Past Weeks

 TemperatureHumidityPressure
High52 °F (Jan 12, 8:30 pm)100% (Jan 8, 9:00 am)30.54 "Hg (Jan 8, 9:00 am)
Low10 °F (Jan 19, 8:00 am)40% (Jan 7, 3:00 pm)29.68 "Hg (Jan 12, 9:30 pm)
Average30 °F78%30.20 "Hg
* Reported Jan 6 5:00 pm — Jan 21 5:00 pm, Saint-Étienne, Weather by CustomWeather, © 2017

Note: Actual official high and low records may vary slightly from our data, if they occured in-between our weather recording intervals... More about our weather records

Advertising

Saint-Étienne Weather History for the Previous 24 Hours

Scroll right to see more
 ConditionsComfort  
Time TempWeatherWind HumidityBarometerVisibility
5:00 pm
Sat, Jan 21
36 °FClear.No wind60%30.21 "Hg5 mi
4:30 pm36 °FClear.No wind60%30.21 "Hg5 mi
4:00 pm36 °FClear.2 mph60%30.24 "Hg5 mi
3:30 pm37 °FClear.1 mph56%30.24 "Hg5 mi
3:00 pm37 °FClear.2 mph56%30.24 "Hg5 mi
2:30 pm37 °FClear.2 mph56%30.24 "Hg5 mi
2:00 pm37 °FClear.3 mph60%30.24 "Hg4 mi
1:30 pm34 °FClear.1 mph65%30.27 "Hg5 mi
1:00 pm32 °FClear.2 mph64%30.27 "Hg4 mi
12:30 pm30 °FIce fog.3 mph69%30.27 "Hg2 mi
12:00 pm28 °FClear.2 mph74%30.30 "Hg4 mi
11:30 am27 °FClear.1 mph80%30.30 "Hg4 mi
11:00 am27 °FIce fog.2 mph80%30.30 "Hg3 mi
10:30 am25 °FClear.No wind86%30.30 "Hg5 mi
10:00 am21 °FClear.2 mph93%30.30 "Hg5 mi
9:30 am19 °FClear.No wind93%30.30 "Hg4 mi
9:00 am16 °FIce fog.No wind93%30.30 "Hg3 mi
8:30 am16 °FClear.No wind86%30.30 "Hg4 mi
8:00 am16 °FClear.No wind86%30.30 "Hg4 mi
7:30 am16 °FClear.No wind93%30.30 "Hg4 mi
7:00 am18 °FClear.2 mph86%30.30 "Hg4 mi
6:30 am18 °FClear.No wind86%30.27 "Hg4 mi
6:00 am16 °FClear.2 mph93%30.27 "Hg4 mi
5:30 am16 °FClear.No wind93%30.30 "Hg4 mi
5:00 am18 °FClear.2 mph86%30.30 "Hg4 mi
4:30 am18 °FClear.1 mph93%30.30 "Hg4 mi
4:00 am16 °FClear.No wind93%30.30 "Hg4 mi
3:30 am16 °FClear.1 mph86%30.30 "Hg4 mi
3:00 am18 °FIce fog.No wind86%30.30 "Hg3 mi
2:30 am19 °FIce fog.2 mph93%30.30 "Hg3 mi
2:00 am16 °FIce fog.No wind86%30.30 "Hg3 mi
1:30 am16 °FIce fog.No wind93%30.30 "Hg2 mi
1:00 am16 °FIce fog.1 mph93%30.30 "Hg2 mi
12:30 am18 °FIce fog.No wind86%30.30 "Hg3 mi
12:00 am18 °FIce fog.No wind86%30.33 "Hg3 mi
11:30 pm
Fri, Jan 20
18 °FIce fog.2 mph93%30.33 "Hg2 mi
11:00 pm19 °FIce fog.1 mph86%30.33 "Hg2 mi
10:30 pm19 °FIce fog.No wind79%30.33 "Hg3 mi
10:00 pm19 °FIce fog.1 mph86%30.33 "Hg3 mi
9:30 pm21 °FIce fog.No wind86%30.33 "Hg3 mi
9:00 pm19 °FIce fog.No wind86%30.33 "Hg3 mi
8:30 pm21 °FIce fog.No wind80%30.33 "Hg3 mi
8:00 pm21 °FIce fog.2 mph80%30.33 "Hg3 mi
7:30 pm23 °FIce fog.No wind80%30.30 "Hg3 mi
7:00 pm23 °FIce fog.3 mph80%30.30 "Hg3 mi
6:30 pm25 °FClear.2 mph80%30.30 "Hg4 mi
6:00 pm27 °FClear.No wind69%30.30 "Hg4 mi
Weather by CustomWeather, © 2017

See weather overviewHow to use our weather pages